Location: Ahstedt
(52.2048°N, 10.1060°E)
Time: 09:48:38
(UTC+00:00)

Nadezhda 3 Rocket - Pass Details

Date: 18 January 2026
Orbit: 956 x 997 km, 82.9° (Epoch: 18 February)

Event Time Altitude Azimuth Distance (km) Brightness Sun altitude
Rises 05:27:54 0° 346° (NNW) 3,678 6.8 -16.4°
Reaches altitude 10° 05:30:31 10° 340° (NNW) 2,732 6.0 -16.0°
Maximum altitude 05:36:22 44° 271° (W) 1,340 4.3 -15.1°
Drops below altitude 10° 05:42:15 10° 202° (SSW) 2,741 6.3 -14.3°
Sets 05:44:52 0° 196° (SSW) 3,691 7.0 -13.9°
